Location: Amherst
(42.5000°N, 72.5000°W)
Time: 10:26:03
(UTC-04:00)

ISS - Pass Details

Date: 21 May 2018
Orbit: 402 x 406 km, 51.6° (Epoch: 19 June)

Event Time Altitude Azimuth Distance (km) Brightness Sun altitude
Rises 02:29:14 0° 306° (NW) 2,320 0.1 -23.0°
Reaches altitude 10° 02:31:34 10° 321° (NW) 1,459 -0.7 -22.8°
Maximum altitude 02:34:19 24° 18° (NNE) 885 -1.4 -22.6°
Drops below altitude 10° 02:37:02 10° 75° (ENE) 1,455 -0.5 -22.3°
Sets 02:39:22 0° 90° (E) 2,313 0.4 -22.1°
